AE0NK Weather Reports


Display with metric or nautical units.
time (UTC)temp
F
wind
direction
speed
MPH
gust
MPH
rain 1hr
in
rain 24hr
in
rain mn
in
humidity
%
barometer
mb
20260906152813 71 139 0.0 5.0 0.00 0.00 0.00 90 1020.7
20260906152330 71 161 2.0 6.0 0.00 0.00 0.00 90 1020.6
20260906151828 71 146 1.0 6.0 0.00 0.00 0.00 90 1020.6
20260906151326 71 143 1.0 6.0 0.00 0.00 0.00 90 1020.7
20260906150822 71 150 2.0 7.0 0.00 0.00 0.00 90 1020.6
20260906150320 71 78 3.0 7.0 0.00 0.00 0.00 90 1020.6
20260906145815 70 171 2.0 9.0 0.00 0.00 0.00 90 1020.6
20260906145314 70 95 3.0 9.0 0.00 0.00 0.00 90 1020.6
20260906144812 70 86 2.0 6.0 0.00 0.00 0.00 90 1020.6
20260906144329 70 90 3.0 7.0 0.00 0.00 0.00 91 1020.6
20260906143827 70 136 1.0 7.0 0.00 0.00 0.00 91 1020.5
20260906143326 70 129 3.0 7.0 0.00 0.00 0.00 91 1020.5
20260906142822 70 80 3.0 9.0 0.00 0.00 0.00 91 1020.4
20260906142320 70 126 3.0 9.0 0.00 0.00 0.00 91 1020.3
20260906141820 70 63 3.0 6.0 0.00 0.00 0.00 91 1020.3
20260906141318 70 168 2.0 10.0 0.00 0.00 0.00 91 1020.3
20260906140813 70 145 1.0 10.0 0.00 0.00 0.00 91 1020.2
20260906140330 70 108 1.0 9.0 0.00 0.00 0.00 91 1020.2
20260906135826 70 117 3.0 8.0 0.00 0.00 0.00 91 1020.2
20260906135325 70 130 5.0 8.0 0.00 0.00 0.00 91 1020.2
20260906134825 70 84 4.0 9.0 0.00 0.00 0.00 91 1020.2
20260906134322 70 138 3.0 9.0 0.00 0.00 0.00 92 1020.2
20260906133821 70 125 3.0 6.0 0.00 0.00 0.00 92 1020.2
20260906133316 69 182 1.0 6.0 0.00 0.00 0.00 92 1020.2
20260906132814 69 135 1.0 4.0 0.00 0.00 0.00 93 1020.1
20260906132312 69 171 1.0 7.0 0.00 0.00 0.00 93 1020.1
20260906131811 69 153 1.0 7.0 0.00 0.00 0.00 93 1020.1
20260906131326 69 177 1.0 5.0 0.00 0.00 0.00 93 1020.1
20260906130822 69 136 1.0 4.0 0.00 0.00 0.00 93 1019.9
20260906130321 69 127 1.0 3.0 0.00 0.00 0.00 93 1019.8
20260906125816 69 202 0.0 2.0 0.00 0.00 0.00 93 1019.7
20260906125312 69 80 1.0 2.0 0.00 0.00 0.00 93 1019.6
20260906124830 69 192 1.0 2.0 0.00 0.00 0.00 93 1019.4
20260906124327 69 165 1.0 2.0 0.00 0.00 0.00 93 1019.4
20260906123825 69 138 0.0 4.0 0.00 0.00 0.00 93 1019.4
20260906123322 68 138 1.0 4.0 0.00 0.00 0.00 93 1019.5
20260906122820 68 126 1.0 4.0 0.00 0.00 0.00 93 1019.5
20260906122316 68 148 0.0 1.0 0.00 0.00 0.00 93 1019.4
20260906121813 68 188 0.0 2.0 0.00 0.00 0.00 93 1019.4
20260906121326 68 188 0.0 2.0 0.00 0.00 0.00 93 1019.4
20260906120824 69 136 0.0 2.0 0.00 0.00 0.00 93 1019.3
20260906120319 69 136 0.0 2.0 0.00 0.00 0.00 93 1019.4
20260906115815 69 139 0.0 2.0 0.00 0.00 0.00 93 1019.5
20260906115330 69 139 0.0 2.0 0.00 0.00 0.00 93 1019.4
20260906114829 69 130 0.0 0.0 0.00 0.00 0.00 93 1019.2
20260906114325 69 130 0.0 0.0 0.00 0.00 0.00 93 1019.1
20260906113822 69 130 0.0 0.0 0.00 0.00 0.00 93 1019.2
20260906113320 69 130 0.0 0.0 0.00 0.00 0.00 93 1019.2
20260906112817 69 130 0.0 0.0 0.00 0.00 0.00 93 1019.3
20260906112314 69 130 0.0 0.0 0.00 0.00 0.00 93 1019.3
20260906111813 69 130 0.0 0.0 0.00 0.00 0.00 93 1019.2
20260906111330 69 130 0.0 0.0 0.00 0.00 0.00 93 1019.1
20260906110828 69 130 0.0 0.0 0.00 0.00 0.00 93 1019.0
20260906110324 69 130 0.0 0.0 0.00 0.00 0.00 93 1018.9
20260906105818 69 130 0.0 0.0 0.00 0.00 0.00 93 1018.8
20260906105316 69 130 0.0 0.0 0.00 0.00 0.00 93 1018.8
20260906104814 69 130 0.0 0.0 0.00 0.00 0.00 93 1018.7
20260906104330 69 130 0.0 0.0 0.00 0.00 0.00 93 1018.8
20260906103827 70 130 0.0 0.0 0.00 0.00 0.00 93 1018.8
20260906103324 70 130 0.0 0.0 0.00 0.00 0.00 93 1018.8
20260906102820 70 130 0.0 0.0 0.00 0.00 0.00 93 1018.7
20260906102318 70 130 0.0 0.0 0.00 0.00 0.00 93 1018.6
20260906101815 70 130 0.0 2.0 0.00 0.00 0.00 92 1018.5
20260906101311 70 130 0.0 2.0 0.00 0.00 0.00 92 1018.5
20260906100828 70 130 0.0 4.0 0.00 0.00 0.00 92 1018.4
20260906100324 70 130 1.0 4.0 0.00 0.00 0.00 92 1018.4
20260906095818 70 109 0.0 2.0 0.00 0.00 0.00 92 1018.2
20260906095316 70 175 0.0 1.0 0.00 0.00 0.00 92 1018.2
20260906094814 70 175 0.0 2.0 0.00 0.00 0.00 92 1018.0
20260906094311 70 175 1.0 2.0 0.00 0.00 0.00 92 1018.0
20260906093828 70 162 0.0 5.0 0.00 0.00 0.00 92 1017.8
20260906093326 70 162 0.0 5.0 0.00 0.00 0.00 92 1017.8
20260906092824 70 146 0.0 6.0 0.00 0.00 0.00 92 1017.8
20260906092321 70 146 2.0 6.0 0.00 0.00 0.00 92 1017.6
20260906091838 70 133 0.0 4.0 0.00 0.00 0.00 92 1017.6
20260906091329 71 169 1.0 4.0 0.00 0.00 0.00 92 1017.5
20260906090827 71 65 1.0 4.0 0.00 0.00 0.00 92 1017.5
20260906090325 71 90 1.0 2.0 0.00 0.00 0.00 91 1017.7
20260906085820 71 112 1.0 2.0 0.00 0.00 0.00 91 1017.6
20260906085318 71 177 0.0 4.0 0.00 0.00 0.00 91 1017.6
20260906084816 71 177 1.0 4.0 0.00 0.00 0.00 91 1017.7
20260906084312 71 174 1.0 5.0 0.00 0.00 0.00 91 1017.8
20260906083830 71 134 0.0 5.0 0.00 0.00 0.00 91 1017.9
20260906083326 72 89 1.0 4.0 0.00 0.00 0.00 91 1017.9
20260906082825 72 105 0.0 5.0 0.00 0.00 0.00 91 1017.8
20260906082323 72 126 1.0 4.0 0.00 0.00 0.00 91 1017.9
20260906081820 72 159 0.0 4.0 0.00 0.00 0.00 91 1017.7
20260906081318 72 175 0.0 4.0 0.00 0.00 0.00 91 1017.9
20260906080815 72 175 0.0 6.0 0.00 0.00 0.00 91 1017.8
20260906080313 72 182 0.0 6.0 0.00 0.00 0.00 91 1017.7
20260906075828 72 162 0.0 5.0 0.00 0.00 0.00 91 1017.7
20260906075326 72 135 1.0 5.0 0.00 0.00 0.00 91 1017.9
20260906074824 72 125 1.0 4.0 0.00 0.00 0.00 91 1017.9
20260906074322 72 106 0.0 2.0 0.00 0.00 0.00 90 1017.9
20260906073820 73 124 1.0 2.0 0.00 0.00 0.00 90 1018.0
20260906073318 73 118 1.0 4.0 0.00 0.00 0.00 90 1017.9
20260906072814 73 207 0.0 4.0 0.00 0.00 0.00 90 1018.0
20260906072311 73 177 1.0 4.0 0.00 0.00 0.00 90 1018.0
20260906071829 73 148 0.0 4.0 0.00 0.00 0.00 90 1018.1
20260906071327 73 71 0.0 4.0 0.00 0.00 0.00 90 1018.1
20260906070823 73 198 1.0 3.0 0.00 0.00 0.00 90 1018.0
20260906070320 73 134 1.0 2.0 0.00 0.00 0.00 90 1018.1
20260906065814 73 134 0.0 1.0 0.00 0.00 0.00 90 1018.3
20260906065312 73 134 0.0 1.0 0.00 0.00 0.00 90 1018.3
20260906064829 73 134 1.0 1.0 0.00 0.00 0.00 90 1018.2
20260906064326 73 102 0.0 0.0 0.00 0.00 0.00 90 1018.3
20260906063823 73 96 0.0 1.0 0.00 0.00 0.00 90 1018.3
20260906063320 73 96 0.0 4.0 0.00 0.00 0.00 90 1018.2
20260906062816 73 86 1.0 4.0 0.00 0.00 0.00 90 1018.2
20260906062313 73 143 0.0 2.0 0.00 0.00 0.00 90 1018.2
20260906061830 73 143 1.0 2.0 0.00 0.00 0.00 90 1018.2
20260906061325 73 143 1.0 2.0 0.00 0.00 0.00 90 1018.3
20260906060822 73 143 0.0 0.0 0.00 0.00 0.00 90 1018.2
20260906060320 73 143 0.0 0.0 0.00 0.00 0.00 90 1018.2
20260906055815 74 143 0.0 0.0 0.00 0.00 0.00 90 1018.2
20260906055312 74 143 0.0 1.0 0.00 0.00 0.00 89 1018.1
20260906054830 74 143 0.0 1.0 0.00 0.00 0.00 89 1018.2
20260906054326 74 181 0.0 2.0 0.00 0.00 0.00 90 1018.3
20260906053824 74 181 0.0 2.0 0.00 0.00 0.00 89 1018.2
20260906053322 74 114 0.0 2.0 0.00 0.00 0.00 89 1018.0
20260906052821 74 113 1.0 2.0 0.00 0.00 0.00 89 1017.9
20260906052318 74 173 0.0 2.0 0.00 0.00 0.00 89 1017.9
20260906051815 74 173 1.0 2.0 0.00 0.00 0.00 89 1018.0
20260906051313 74 150 0.0 1.0 0.00 0.00 0.00 89 1018.0
20260906050826 74 150 0.0 1.0 0.00 0.00 0.00 89 1017.9
20260906050325 74 214 0.0 0.0 0.00 0.00 0.00 89 1017.9
20260906045811 74 214 0.0 0.0 0.00 0.00 0.00 89 1017.7
20260906045328 74 214 0.0 1.0 0.00 0.00 0.00 89 1017.6
20260906044824 74 214 0.0 1.0 0.00 0.00 0.00 88 1017.5
20260906044321 74 214 0.0 1.0 0.00 0.00 0.00 88 1017.5
20260906043818 74 214 0.0 0.0 0.00 0.00 0.00 88 1017.4
20260906043316 74 214 0.0 0.0 0.00 0.00 0.00 88 1017.6
20260906042813 74 214 0.0 0.0 0.00 0.00 0.00 88 1017.5
20260906042329 75 214 0.0 0.0 0.00 0.00 0.00 88 1017.6
20260906041826 75 214 0.0 0.0 0.00 0.00 0.00 88 1017.6
20260906041324 75 214 0.0 0.0 0.00 0.00 0.00 88 1017.7
20260906040820 75 214 0.0 0.0 0.00 0.00 0.00 88 1017.6
20260906040314 75 214 0.0 0.0 0.00 0.00 0.00 88 1017.6
20260906035830 75 214 0.0 0.0 0.00 0.00 0.00 88 1017.6
20260906035327 75 214 0.0 0.0 0.00 0.00 0.00 88 1017.6
20260906034825 75 214 0.0 0.0 0.00 0.00 0.00 87 1017.6
20260906034323 75 214 0.0 0.0 0.00 0.00 0.00 87 1017.6
20260906033820 75 214 0.0 0.0 0.00 0.00 0.00 86 1017.3
20260906033318 75 214 0.0 0.0 0.00 0.00 0.00 86 1017.3
20260906032814 75 214 0.0 0.0 0.00 0.00 0.00 86 1017.2
20260906032330 76 214 0.0 1.0 0.00 0.00 0.00 87 1017.2
20260906031828 76 214 0.0 2.0 0.00 0.00 0.00 86 1017.2
20260906031325 76 214 0.0 2.0 0.00 0.00 0.00 87 1017.2
20260906030824 76 150 0.0 2.0 0.00 0.00 0.00 86 1017.0
20260906030321 76 150 0.0 2.0 0.00 0.00 0.00 86 1017.2
20260906025816 76 105 0.0 0.0 0.00 0.00 0.00 86 1017.1
20260906025314 76 105 0.0 1.0 0.00 0.00 0.00 86 1017.1
20260906024829 76 105 0.0 1.0 0.00 0.00 0.00 86 1017.0
20260906024327 76 122 0.0 1.0 0.00 0.00 0.00 86 1016.9
20260906023825 76 100 0.0 2.0 0.00 0.00 0.00 86 1016.9
20260906023321 76 141 0.0 2.0 0.00 0.00 0.00 85 1016.9
20260906022820 76 138 0.0 5.0 0.00 0.00 0.00 85 1016.9
20260906022317 77 135 1.0 5.0 0.00 0.00 0.00 85 1016.7
20260906021814 77 150 1.0 2.0 0.00 0.00 0.00 85 1016.7
20260906021313 77 149 0.0 4.0 0.00 0.00 0.00 85 1016.8
20260906020829 77 142 1.0 4.0 0.00 0.00 0.00 85 1016.6
20260906020327 77 107 1.0 2.0 0.00 0.00 0.00 84 1016.6
20260906015822 77 103 0.0 5.0 0.00 0.00 0.00 84 1016.4
20260906015318 77 131 0.0 4.0 0.00 0.00 0.00 84 1016.2
20260906014816 78 115 1.0 5.0 0.00 0.00 0.00 84 1016.1
20260906014314 78 150 1.0 5.0 0.00 0.00 0.00 84 1016.1
20260906013812 78 151 1.0 2.0 0.00 0.00 0.00 84 1016.0
20260906013330 78 122 0.0 1.0 0.00 0.00 0.00 84 1016.0
20260906012824 78 122 0.0 0.0 0.00 0.00 0.00 84 1015.9
20260906012323 79 122 0.0 0.0 0.00 0.00 0.00 83 1015.9
20260906011819 79 122 0.0 0.0 0.00 0.00 0.00 83 1015.9
20260906011315 79 122 0.0 0.0 0.00 0.00 0.00 82 1015.9
20260906010813 79 122 0.0 0.0 0.00 0.00 0.00 82 1015.9
20260906010311 79 122 0.0 0.0 0.00 0.00 0.00 82 1015.9
20260906005827 79 122 0.0 0.0 0.00 0.00 0.00 81 1016.0
20260906005325 79 122 0.0 2.0 0.00 0.00 0.00 81 1015.8
20260906004824 80 122 0.0 2.0 0.00 0.00 0.00 81 1015.7
20260906004322 80 140 0.0 1.0 0.00 0.00 0.00 81 1015.6
20260906003819 80 209 0.0 2.0 0.00 0.00 0.00 80 1015.6
20260906003317 80 209 0.0 2.0 0.00 0.00 0.00 80 1015.6
20260906002816 80 209 0.0 1.0 0.00 0.00 0.00 80 1015.5
20260906002312 80 209 0.0 2.0 0.00 0.00 0.00 80 1015.6
20260906001831 81 209 0.0 2.0 0.00 0.00 0.00 80 1015.6
20260906001328 81 143 1.0 2.0 0.00 0.00 0.00 79 1015.6
20260906000827 81 149 1.0 5.0 0.00 0.00 0.00 79 1015.6
20260906000326 82 154 1.0 5.0 0.00 0.00 0.00 79 1015.6
20260905235820 82 99 1.0 2.0 0.00 0.00 0.00 80 1015.5
20260905235319 82 189 0.0 2.0 0.00 0.00 0.00 80 1015.6
20260905234817 83 189 0.0 5.0 0.00 0.00 0.00 79 1015.5
20260905234315 83 238 2.0 5.0 0.00 0.00 0.00 79 1015.5
20260905233814 83 156 1.0 4.0 0.00 0.00 0.00 79 1015.5
20260905233330 84 243 1.0 8.0 0.00 0.00 0.00 79 1015.5
20260905232829 84 221 1.0 8.0 0.00 0.00 0.00 79 1015.5
20260905232326 85 159 1.0 5.0 0.00 0.00 0.00 78 1015.3
20260905231824 85 315 1.0 8.0 0.00 0.00 0.00 78 1015.4
20260905231320 86 167 2.0 8.0 0.00 0.00 0.00 77 1015.2
20260905230818 86 184 2.0 5.0 0.00 0.00 0.00 76 1015.2
20260905230317 87 115 0.0 5.0 0.00 0.00 0.00 77 1015.1
20260905225812 87 144 1.0 6.0 0.00 0.00 0.00 76 1015.1
20260905225329 87 180 2.0 6.0 0.00 0.00 0.00 75 1015.1
20260905224827 88 71 1.0 5.0 0.00 0.00 0.00 75 1015.1
20260905224325 88 99 1.0 5.0 0.00 0.00 0.00 75 1014.9
20260905223821 88 195 1.0 2.0 0.00 0.00 0.00 74 1014.9
20260905223318 88 329 0.0 7.0 0.00 0.00 0.00 75 1014.7
20260905222814 88 214 1.0 5.0 0.00 0.00 0.00 74 1014.8
20260905222312 89 116 1.0 5.0 0.00 0.00 0.00 73 1014.7
20260905221831 89 252 0.0 4.0 0.00 0.00 0.00 72 1014.6
20260905221327 89 187 1.0 4.0 0.00 0.00 0.00 72 1014.7
20260905220826 89 126 1.0 5.0 0.00 0.00 0.00 71 1014.7
20260905220323 89 139 1.0 5.0 0.00 0.00 0.00 71 1014.7
20260905215816 89 142 0.0 2.0 0.00 0.00 0.00 71 1014.8
20260905215315 89 115 0.0 4.0 0.00 0.00 0.00 70 1014.8
20260905214812 90 307 0.0 2.0 0.00 0.00 0.00 72 1014.9
20260905214310 90 329 1.0 2.0 0.00 0.00 0.00 72 1014.9
20260905213825 90 242 0.0 2.0 0.00 0.00 0.00 71 1014.8
20260905213323 90 74 0.0 1.0 0.00 0.00 0.00 71 1014.9
20260905212820 90 74 0.0 4.0 0.00 0.00 0.00 70 1014.9
20260905212318 90 317 1.0 4.0 0.00 0.00 0.00 69 1014.9
20260905211817 90 45 1.0 4.0 0.00 0.00 0.00 71 1014.9
20260905211314 90 182 1.0 4.0 0.00 0.00 0.00 72 1014.8
20260905210811 90 5 0.0 2.0 0.00 0.00 0.00 72 1014.9
20260905210310 90 340 1.0 6.0 0.00 0.00 0.00 71 1014.9
20260905205824 90 288 2.0 6.0 0.00 0.00 0.00 70 1014.9
20260905205322 90 333 1.0 4.0 0.00 0.00 0.00 71 1014.9
20260905204818 90 220 0.0 2.0 0.00 0.00 0.00 71 1015.0
20260905204314 90 220 1.0 4.0 0.00 0.00 0.00 69 1015.0
20260905203813 90 302 2.0 4.0 0.00 0.00 0.00 70 1015.1
20260905203311 90 298 1.0 5.0 0.00 0.00 0.00 72 1015.1
20260905202829 90 281 3.0 5.0 0.00 0.00 0.00 70 1015.0
20260905202327 90 329 1.0 5.0 0.00 0.00 0.00 71 1015.1
20260905201826 90 348 2.0 5.0 0.00 0.00 0.00 71 1015.1
20260905201322 90 117 0.0 6.0 0.00 0.00 0.00 73 1015.1
20260905200821 90 319 3.0 6.0 0.00 0.00 0.00 72 1015.1
20260905200319 89 24 1.0 5.0 0.00 0.00 0.00 73 1015.2
20260905195815 90 298 1.0 2.0 0.00 0.00 0.00 72 1015.3
20260905195311 90 13 0.0 6.0 0.00 0.00 0.00 73 1015.4
20260905194828 91 298 3.0 6.0 0.00 0.00 0.00 69 1015.5
20260905194325 90 278 1.0 4.0 0.00 0.00 0.00 71 1015.6
20260905193823 90 302 1.0 2.0 0.00 0.00 0.00 72 1015.6
20260905193320 90 160 0.0 2.0 0.00 0.00 0.00 72 1015.6
20260905192818 90 327 1.0 4.0 0.00 0.00 0.00 71 1015.6
20260905192314 90 115 1.0 4.0 0.00 0.00 0.00 72 1015.6
20260905191811 89 183 0.0 4.0 0.00 0.00 0.00 77 1015.8
20260905191329 88 92 1.0 4.0 0.00 0.00 0.00 74 1015.5
20260905190827 89 144 0.0 2.0 0.00 0.00 0.00 72 1015.6
20260905190325 89 245 0.0 5.0 0.00 0.00 0.00 74 1015.7
20260905185820 89 290 0.0 5.0 0.00 0.00 0.00 76 1015.9
20260905185316 89 290 1.0 4.0 0.00 0.00 0.00 73 1016.0
20260905184814 88 122 1.0 4.0 0.00 0.00 0.00 74 1016.1
20260905184313 88 176 1.0 2.0 0.00 0.00 0.00 75 1016.2
20260905183810 87 176 0.0 1.0 0.00 0.00 0.00 78 1016.1
20260905183326 87 176 0.0 4.0 0.00 0.00 0.00 77 1016.1
20260905182822 87 136 0.0 4.0 0.00 0.00 0.00 74 1016.0
20260905182318 87 105 0.0 4.0 0.00 0.00 0.00 78 1016.2
20260905181817 87 160 0.0 2.0 0.00 0.00 0.00 79 1016.1
20260905181317 87 160 0.0 2.0 0.00 0.00 0.00 78 1016.1
20260905180813 87 160 0.0 2.0 0.00 0.00 0.00 76 1016.1
20260905180310 87 146 1.0 4.0 0.00 0.00 0.00 75 1016.0
20260905175824 88 73 1.0 4.0 0.00 0.00 0.00 74 1016.1
20260905175320 87 202 1.0 4.0 0.00 0.00 0.00 75 1016.1
20260905174819 87 224 1.0 4.0 0.00 0.00 0.00 76 1016.0
20260905174317 88 222 1.0 4.0 0.00 0.00 0.00 77 1016.0
20260905173813 88 135 1.0 6.0 0.00 0.00 0.00 75 1016.0
20260905173313 87 5 1.0 6.0 0.00 0.00 0.00 78 1016.1
20260905172810 87 170 0.0 5.0 0.00 0.00 0.00 77 1016.1
20260905172327 88 124 1.0 5.0 0.00 0.00 0.00 75 1016.2
20260905171825 87 149 1.0 4.0 0.00 0.00 0.00 77 1016.1
20260905171321 87 173 2.0 4.0 0.00 0.00 0.00 76 1016.3
20260905170818 87 252 1.0 4.0 0.00 0.00 0.00 77 1016.3
20260905170314 87 142 1.0 4.0 0.00 0.00 0.00 77 1016.3
20260905165830 87 200 0.0 4.0 0.00 0.00 0.00 79 1016.3
20260905165326 86 120 1.0 4.0 0.00 0.00 0.00 78 1016.4
20260905164824 87 165 1.0 4.0 0.00 0.00 0.00 78 1016.4
20260905164322 86 146 1.0 2.0 0.00 0.00 0.00 80 1016.5
20260905163821 86 261 1.0 2.0 0.00 0.00 0.00 79 1016.5
20260905163318 86 92 0.0 4.0 0.00 0.00 0.00 80 1016.5
20260905162816 86 325 1.0 3.0 0.00 0.00 0.00 78 1016.5
20260905162314 87 173 1.0 4.0 0.00 0.00 0.00 79 1016.6
20260905161811 86 290 0.0 4.0 0.00 0.00 0.00 80 1016.5
20260905161326 86 258 1.0 3.0 0.00 0.00 0.00 78 1016.5
20260905160824 86 50 1.0 3.0 0.00 0.00 0.00 79 1016.5
20260905160320 86 149 1.0 4.0 0.00 0.00 0.00 80 1016.4
20260905155814 86 154 1.0 2.0 0.00 0.00 0.00 80 1016.4
20260905155330 86 300 1.0 2.0 0.00 0.00 0.00 80 1016.4
20260905154826 86 155 0.0 1.0 0.00 0.00 0.00 79 1016.3
20260905154324 86 155 0.0 4.0 0.00 0.00 0.00 80 1016.3
20260905153819 86 144 0.0 4.0 0.00 0.00 0.00 80 1016.3
20260905153317 85 194 0.0 1.0 0.00 0.00 0.00 80 1016.3